Dewpoint
-5 -4 -3 -4 -3 -1 2 6 1 5 12 10 6 5 7 8 9 8 7 6 8 10 10 11 11 10 10 9 10 9 10 8
-7 -3 -0 -0 -3 -7 -7 -3 0 7 9 8 7 5 8 9 9 9 8 6 7 9 11 11 11 10 10 9 9 9 9 9
-4 1 3 3 1 4 -1 -1 5 8 7 7 8 7 8 9 9 9 8 6 7 9 10 10 10 10 10 9 9 8 8 4
-0 2 3 4 4 4 5 7 8 10 11 9 11 9 9 10 9 9 9 7 9 10 10 11 10 10 10 9 9 8 6 5
2 3 3 4 5 5 5 8 9 11 11 10 11 8 9 9 9 9 10 8 8 9 10 10 9 10 10 10 9 8 6 8
3 4 4 3 5 8 7 9 10 10 11 11 12 11 11 11 10 10 8 11 9 9 9 9 9 10 9 10 8 8 7 8
3 3 3 3 5 7 9 10 10 9 9 12 11 12 11 10 9 8 6 11 10 8 9 9 9 9 9 9 8 8 7 8
2 2 3 4 5 6 9 10 10 8 10 12 11 12 11 10 9 8 5 9 7 8 9 9 9 9 10 9 8 8 7 8
2 2 3 4 5 6 8 10 10 10 9 11 11 10 11 10 9 7 4 6 8 9 9 9 9 9 9 8 8 8 7 7
3 3 4 5 6 7 8 10 10 9 9 10 10 10 10 10 9 7 7 9 8 9 9 9 9 9 9 9 8 8 8 7
4 4 5 5 5 7 8 9 9 9 9 10 10 10 10 10 9 4 6 7 8 8 8 9 8 9 9 9 8 8 8 8
4 5 5 4 5 7 9 10 9 9 9 10 10 10 9 9 8 6 6 7 8 8 8 9 9 9 9 9 9 7 7 7
4 4 4 4 5 9 9 9 9 9 9 10 10 10 9 8 7 6 6 7 8 7 7 8 8 9 9 9 8 7 7 6
4 4 4 3 4 8 9 9 9 9 9 9 10 10 9 6 7 6 7 7 8 7 7 8 8 8 8 8 8 7 7 5
4 4 4 3 3 6 7 9 9 9 9 9 9 9 8 6 7 6 7 7 7 7 7 6 6 7 7 7 7 7 7 6
3 3 2 3 3 5 7 8 8 9 8 8 9 9 7 8 8 7 7 7 7 7 7 7 6 6 7 7 7 7 7 6
2 1 2 2 3 3 6 8 8 8 8 8 9 9 7 8 7 8 8 7 8 8 7 7 7 6 6 6 7 7 6 6
1 -0 1 1 2 2 4 8 8 8 8 9 9 8 6 7 7 8 8 8 8 8 8 7 7 6 6 6 7 7 7 6
-1 -1 -0 1 2 1 1 8 8 8 8 8 8 9 9 8 6 7 7 8 8 8 8 7 6 6 6 6 6 7 7 7
Wind_Speed
19 16 13 14 16 19 21 23 28 28 31 38 38 36 34 31 29 27 25 28 29 32 32 30 29 31 28 28 36 44 53 42
17 11 11 15 20 24 25 25 26 25 35 41 42 41 38 35 32 29 27 27 28 31 32 29 29 28 30 25 35 46 41 40
11 9 9 11 18 20 23 24 24 24 33 39 40 43 39 36 32 30 27 26 26 27 28 29 26 26 32 31 37 32 37 42
7 6 8 11 13 17 20 20 21 24 25 33 34 37 36 37 34 31 27 25 24 25 25 25 27 23 30 38 40 45 52 46
5 7 10 11 14 16 18 18 20 24 26 33 40 42 40 36 33 30 27 26 24 26 24 25 23 24 31 37 42 51 53 49
4 7 11 14 15 14 14 15 19 23 28 36 37 29 25 22 21 23 25 25 25 27 26 27 26 24 27 32 47 52 56 49
7 9 11 14 14 15 12 15 19 22 29 35 33 29 25 24 24 23 23 25 27 29 26 24 25 25 30 27 48 52 50 46
8 12 14 14 16 15 14 15 19 22 28 34 31 28 27 23 20 18 20 26 30 28 28 25 25 27 25 30 44 51 46 44
9 13 16 18 20 19 15 17 19 23 26 34 30 29 23 20 20 19 20 24 22 29 24 26 27 25 32 35 42 49 51 51
14 19 16 16 25 24 20 18 21 25 24 33 36 31 23 18 17 17 16 16 22 27 30 27 22 30 35 42 47 51 51 49
18 20 21 22 27 29 23 20 24 26 25 33 32 30 22 18 16 17 16 17 19 23 28 28 29 29 32 46 50 50 49 46
17 22 23 26 27 27 20 22 25 27 26 31 29 29 22 20 17 17 17 15 15 17 22 25 28 30 30 34 41 52 48 46
18 22 26 30 28 16 10 18 24 27 25 27 30 29 23 22 21 18 19 18 15 15 17 20 27 28 29 33 37 46 48 49
18 23 30 35 27 14 10 15 21 25 24 28 32 31 26 24 22 21 20 19 17 15 14 18 18 21 24 28 34 38 46 50
19 23 28 37 31 19 9 15 21 24 22 28 30 29 27 25 22 21 21 19 19 16 14 13 14 13 15 16 24 35 40 44
21 23 26 36 36 21 4 16 19 21 24 28 24 25 25 20 20 20 20 19 18 17 17 15 12 13 13 14 18 24 29 36
20 24 26 30 36 25 8 13 22 21 22 20 20 22 26 23 19 18 19 19 19 17 17 15 14 13 15 12 10 18 24 27
22 23 25 27 29 23 11 15 20 14 15 14 15 13 20 21 18 18 18 18 19 21 19 18 17 15 13 14 17 21 27 29
20 21 21 22 23 17 5 19 19 18 19 17 15 14 12 13 17 16 16 16 18 18 19 20 19 19 17 15 17 21 31 32
Wind_Direction
249 255 252 253 250 250 248 243 249 240 226 230 233 231 232 230 233 235 232 234 233 232 238 242 238 239 237 227 227 201 187 182
264 258 265 263 257 257 260 252 245 232 225 226 227 228 227 230 232 234 233 234 233 230 234 236 241 241 241 215 195 185 182 182
240 259 285 288 267 259 257 250 239 227 227 228 225 225 227 231 235 236 236 235 234 229 230 237 238 240 213 191 187 185 183 175
237 279 292 292 295 275 261 246 232 222 213 222 219 221 224 226 232 237 234 235 228 230 234 236 234 237 220 208 199 192 178 184
265 295 308 310 309 296 264 243 226 218 208 219 212 218 218 226 230 236 235 233 230 229 236 236 240 235 232 227 219 197 184 188
289 305 315 319 317 307 277 243 226 222 209 219 210 207 212 217 217 225 229 231 228 234 239 244 240 238 226 230 205 198 191 188
295 302 308 313 313 317 281 245 228 225 216 210 208 205 199 206 215 226 229 221 228 233 239 243 237 245 228 225 209 199 197 196
320 317 316 315 320 312 288 248 234 226 220 208 206 204 204 209 215 220 227 219 222 229 226 222 231 233 230 217 206 203 195 201
324 326 315 308 313 311 302 252 233 226 223 207 204 202 200 206 217 228 234 220 219 223 227 233 235 235 219 208 206 199 199 205
336 332 327 310 311 305 289 257 228 220 222 209 216 203 199 201 216 222 217 205 218 219 226 228 229 229 219 209 201 201 206 209
335 335 326 317 313 308 282 249 224 213 218 211 219 201 199 202 206 224 218 210 215 217 224 229 230 225 222 215 211 213 210 209
339 337 333 330 317 307 275 230 213 206 213 212 213 199 197 203 205 213 203 197 201 205 211 223 225 228 229 219 228 219 216 213
347 345 344 343 334 318 270 216 207 201 211 206 203 195 194 204 202 202 198 195 204 213 214 220 222 224 230 232 229 223 219 214
342 348 350 349 344 314 263 232 210 207 208 200 205 199 198 200 199 198 197 193 199 204 201 204 212 223 227 233 230 228 222 215
342 341 348 347 349 332 329 228 215 215 214 203 205 200 202 197 196 198 199 197 198 196 182 183 190 200 207 221 234 232 228 222
350 347 349 347 349 328 347 232 221 214 206 202 201 200 194 189 191 198 200 201 206 201 190 195 203 208 219 222 232 235 233 228
349 355 349 343 345 325 346 212 213 201 193 192 192 199 191 189 188 193 202 204 204 211 207 207 214 217 218 225 229 232 237 233
354 356 351 356 340 326 321 173 196 179 175 178 181 179 191 190 188 193 200 206 209 210 213 216 223 227 227 229 241 238 232 227
357 354 356 7 345 340 23 162 174 177 175 172 176 168 159 170 194 199 201 202 206 209 220 226 226 230 234 231 229 236 239 236
Height
1444 1446 1447 1448 1449 1449 1448 1448 1448 1450 1454 1455 1459 1463 1466 1470 1472 1474 1477 1480 1481 1484 1486 1487 1489 1492 1493 1495 1497 1499 1497 1510
1439 1441 1442 1442 1442 1441 1441 1440 1440 1442 1442 1445 1449 1453 1458 1462 1466 1469 1471 1474 1476 1478 1481 1482 1484 1486 1488 1490 1495 1495 1498 1508
1435 1437 1437 1437 1436 1435 1433 1433 1433 1434 1435 1439 1443 1446 1452 1457 1461 1464 1465 1468 1470 1472 1475 1479 1480 1482 1483 1487 1492 1495 1503 1509
1431 1433 1433 1432 1431 1428 1427 1427 1427 1427 1429 1432 1439 1442 1447 1450 1453 1457 1459 1462 1465 1468 1471 1474 1476 1479 1480 1482 1486 1489 1493 1504
1427 1428 1428 1428 1425 1422 1420 1420 1422 1422 1424 1423 1429 1430 1436 1442 1447 1451 1454 1456 1459 1462 1466 1469 1472 1473 1477 1478 1481 1484 1488 1497
1425 1425 1423 1422 1420 1416 1414 1414 1416 1416 1418 1418 1425 1429 1435 1439 1443 1444 1447 1451 1454 1457 1460 1463 1466 1469 1473 1475 1478 1482 1484 1492
1421 1421 1419 1417 1415 1412 1409 1408 1409 1409 1411 1414 1419 1424 1429 1432 1435 1437 1441 1446 1449 1451 1454 1458 1461 1463 1467 1469 1473 1476 1484 1491
1419 1417 1415 1413 1410 1408 1404 1403 1403 1403 1405 1410 1414 1421 1423 1427 1430 1432 1436 1440 1442 1445 1449 1452 1455 1459 1463 1466 1470 1475 1483 1489
1415 1413 1410 1408 1406 1403 1400 1398 1397 1397 1400 1404 1410 1414 1420 1425 1426 1428 1430 1433 1436 1441 1444 1448 1452 1455 1459 1463 1468 1473 1477 1482
1410 1409 1406 1403 1399 1396 1393 1391 1390 1390 1393 1399 1403 1409 1415 1420 1423 1425 1426 1429 1432 1437 1440 1444 1448 1451 1454 1459 1463 1469 1473 1478
1407 1405 1402 1397 1392 1384 1382 1382 1382 1383 1387 1392 1398 1405 1411 1416 1419 1421 1422 1425 1429 1433 1437 1440 1444 1446 1451 1454 1459 1465 1468 1474
1404 1402 1398 1391 1384 1372 1371 1373 1374 1377 1381 1386 1394 1402 1407 1411 1415 1417 1420 1424 1428 1430 1434 1436 1440 1444 1447 1451 1456 1458 1463 1470
1402 1400 1394 1386 1374 1367 1365 1368 1370 1372 1376 1382 1389 1397 1402 1407 1411 1414 1417 1421 1425 1428 1430 1433 1437 1439 1443 1445 1449 1452 1459 1464
1401 1396 1390 1381 1369 1365 1365 1367 1369 1371 1374 1378 1384 1392 1397 1403 1407 1410 1414 1418 1423 1426 1427 1430 1433 1436 1440 1442 1445 1449 1453 1459
1400 1395 1387 1379 1366 1365 1360 1364 1366 1369 1372 1375 1381 1389 1395 1400 1404 1407 1412 1416 1421 1424 1426 1429 1432 1435 1439 1441 1444 1447 1451 1455
1398 1391 1384 1378 1366 1364 1360 1363 1365 1366 1370 1375 1379 1388 1394 1399 1401 1404 1410 1414 1418 1423 1426 1429 1432 1435 1437 1439 1443 1446 1450 1454
1399 1390 1385 1380 1367 1366 1360 1364 1365 1366 1370 1373 1380 1386 1391 1395 1397 1402 1407 1412 1416 1420 1423 1426 1430 1433 1436 1437 1440 1443 1447 1451
1397 1391 1385 1377 1375 1369 1362 1362 1365 1364 1368 1374 1381 1385 1388 1392 1395 1400 1404 1409 1414 1418 1421 1424 1427 1430 1433 1435 1438 1441 1444 1447
1398 1393 1387 1377 1377 1371 1363 1359 1363 1366 1370 1375 1380 1384 1387 1390 1394 1398 1402 1407 1412 1416 1419 1421 1424 1427 1430 1433 1436 1439 1441 1444